GW4413 Weather Reports


Display with metric or nautical units.
time (UTC)temp
F
wind
direction
speed
MPH
gust
MPH
rain 1hr
in
rain 24hr
in
rain mn
in
humidity
%
barometer
mb
20260906030012 61 47 0.0 0.0 0.00 0.00 0.00 71 1018.0
20260906025513 62 47 0.0 0.0 0.00 0.00 0.00 70 1018.0
20260906025013 62 47 0.0 0.0 0.00 0.00 0.00 69 1017.9
20260906024512 62 47 0.0 0.0 0.00 0.00 0.00 69 1018.0
20260906024017 62 47 0.0 0.0 0.00 0.00 0.00 69 1018.0
20260906023516 63 47 0.0 0.0 0.00 0.00 0.00 68 1018.0
20260906023019 63 47 0.0 0.0 0.00 0.00 0.00 67 1018.0
20260906022517 63 47 0.0 0.0 0.00 0.00 0.00 67 1017.9
20260906022011 63 47 0.0 0.0 0.00 0.00 0.00 68 1017.9
20260906021516 63 47 0.0 0.0 0.00 0.00 0.00 67 1017.8
20260906021019 63 47 0.0 0.0 0.00 0.00 0.00 66 1017.7
20260906020512 64 47 0.0 0.0 0.00 0.00 0.00 66 1017.6
20260906020018 64 47 0.0 0.0 0.00 0.00 0.00 67 1017.6
20260906015516 64 47 0.0 0.0 0.00 0.00 0.00 66 1017.6
20260906015015 64 47 0.0 0.0 0.00 0.00 0.00 66 1017.6
20260906014521 64 47 0.0 0.0 0.00 0.00 0.00 66 1017.6
20260906014015 64 47 0.0 0.0 0.00 0.00 0.00 65 1017.6
20260906013511 64 47 0.0 0.0 0.00 0.00 0.00 64 1017.6
20260906013026 65 47 0.0 0.0 0.00 0.00 0.00 66 1017.6
20260906012513 65 47 0.0 0.0 0.00 0.00 0.00 65 1017.5
20260906012015 65 47 0.0 0.0 0.00 0.00 0.00 65 1017.5
20260906011519 65 47 0.0 0.0 0.00 0.00 0.00 64 1017.4
20260906011016 65 47 0.0 0.0 0.00 0.00 0.00 65 1017.4
20260906010511 65 47 0.0 0.0 0.00 0.00 0.00 66 1017.5
20260906010014 65 47 0.0 0.0 0.00 0.00 0.00 65 1017.4
20260906005518 65 47 0.0 0.0 0.00 0.00 0.00 64 1017.4
20260906005013 65 47 0.0 0.0 0.00 0.00 0.00 64 1017.3
20260906004517 65 47 0.0 0.0 0.00 0.00 0.00 61 1017.3
20260906004016 65 47 0.0 0.0 0.00 0.00 0.00 60 1017.3
20260906003512 65 47 0.0 0.0 0.00 0.00 0.00 61 1017.3
20260906003016 65 47 0.0 0.0 0.00 0.00 0.00 59 1017.1
20260906002515 65 47 0.0 0.0 0.00 0.00 0.00 58 1017.1
20260906002016 65 47 0.0 0.0 0.00 0.00 0.00 59 1017.0
20260906001513 65 47 0.0 0.0 0.00 0.00 0.00 61 1017.1
20260906001016 65 47 0.0 0.0 0.00 0.00 0.00 61 1017.1
20260906000513 65 47 0.0 0.0 0.00 0.00 0.00 61 1017.1
20260906000015 65 47 0.0 0.0 0.00 0.00 0.00 63 1017.1
20260905235521 65 47 0.0 0.0 0.00 0.00 0.00 60 1017.1
20260905235013 65 47 0.0 0.0 0.00 0.00 0.00 65 1017.1
20260905234513 65 47 0.0 0.0 0.00 0.00 0.00 64 1017.1
20260905234017 65 47 0.0 1.0 0.00 0.00 0.00 64 1017.1
20260905233512 65 47 0.0 2.0 0.00 0.00 0.00 65 1017.1
20260905233017 65 47 0.0 2.0 0.00 0.00 0.00 66 1017.1
20260905232519 65 47 0.0 2.0 0.00 0.00 0.00 66 1017.2
20260905232014 65 47 0.0 2.0 0.00 0.00 0.00 66 1017.2
20260905231541 65 47 0.0 1.0 0.00 0.00 0.00 66 1017.2
20260905231019 65 47 0.0 3.0 0.00 0.00 0.00 67 1017.3
20260905230511 65 47 0.0 3.0 0.00 0.00 0.00 67 1017.3
20260905230044 65 47 0.0 2.0 0.00 0.00 0.00 67 1017.3
20260905225515 65 47 0.0 2.0 0.00 0.00 0.00 67 1017.3
20260905225012 65 47 1.0 2.0 0.00 0.00 0.00 66 1017.4
20260905224531 65 47 0.0 2.0 0.00 0.00 0.00 66 1017.4
20260905224015 65 47 1.0 2.0 0.00 0.00 0.00 66 1017.4
20260905223513 65 47 0.0 2.0 0.00 0.00 0.00 68 1017.4
20260905223035 65 47 0.0 2.0 0.00 0.00 0.00 66 1017.4
20260905222514 65 47 0.0 2.0 0.00 0.00 0.00 66 1017.4
20260905222014 65 47 0.0 2.0 0.00 0.00 0.00 67 1017.5
20260905221536 65 47 0.0 2.0 0.00 0.00 0.00 67 1017.4
20260905221018 65 23 1.0 2.0 0.00 0.00 0.00 67 1017.4
20260905220513 65 22 0.0 3.0 0.00 0.00 0.00 67 1017.4
20260905220033 65 333 0.0 3.0 0.00 0.00 0.00 67 1017.5
20260905215519 65 41 1.0 3.0 0.00 0.00 0.00 67 1017.5
20260905215012 65 341 0.0 3.0 0.00 0.00 0.00 66 1017.5
20260905214536 65 341 0.0 2.0 0.00 0.00 0.00 68 1017.6
20260905214014 65 312 0.0 2.0 0.00 0.00 0.00 67 1017.6
20260905213518 65 312 0.0 2.0 0.00 0.00 0.00 68 1017.7
20260905213034 64 350 0.0 2.0 0.00 0.00 0.00 67 1017.6
20260905212518 65 348 0.0 2.0 0.00 0.00 0.00 68 1017.7
20260905212014 65 348 1.0 2.0 0.00 0.00 0.00 67 1017.8
20260905211518 64 289 1.0 2.0 0.00 0.00 0.00 68 1017.8
20260905211003 64 9 0.0 2.0 0.00 0.00 0.00 70 1017.8
20260905210506 64 311 1.0 2.0 0.00 0.00 0.00 69 1017.9
20260905210009 64 65 1.0 3.0 0.00 0.00 0.00 69 1017.9
20260905205503 64 65 1.0 3.0 0.00 0.00 0.00 68 1017.9
20260905205003 64 13 0.0 3.0 0.00 0.00 0.00 69 1018.0
20260905204511 63 63 1.0 3.0 0.00 0.00 0.00 70 1018.1
20260905204003 63 73 1.0 3.0 0.00 0.00 0.00 70 1018.1
20260905203504 63 78 1.0 3.0 0.00 0.00 0.00 70 1018.1
20260905203016 63 61 1.0 2.0 0.00 0.00 0.00 70 1018.1
20260905202505 63 67 0.0 2.0 0.00 0.00 0.00 71 1018.2
20260905202004 63 67 1.0 3.0 0.00 0.00 0.00 71 1018.2
20260905201512 63 67 1.0 3.0 0.00 0.00 0.00 71 1018.2
20260905201003 63 43 0.0 0.0 0.00 0.00 0.00 72 1018.1
20260905200506 63 43 0.0 2.0 0.00 0.00 0.00 72 1018.1
20260905200014 63 43 0.0 2.0 0.00 0.00 0.00 73 1018.1
20260905195503 63 43 0.0 2.0 0.00 0.00 0.00 73 1018.1
20260905195004 62 55 1.0 2.0 0.00 0.00 0.00 74 1018.1
20260905194513 62 55 0.0 2.0 0.00 0.00 0.00 74 1018.1
20260905194003 62 55 0.0 3.0 0.00 0.00 0.00 75 1018.1
20260905193503 62 55 0.0 3.0 0.00 0.00 0.00 75 1018.2
20260905193013 62 55 1.0 2.0 0.00 0.00 0.00 76 1018.3
20260905192503 61 55 0.0 2.0 0.00 0.00 0.00 75 1018.3
20260905192007 61 55 0.0 2.0 0.00 0.00 0.00 76 1018.3
20260905191517 61 55 0.0 2.0 0.00 0.00 0.00 76 1018.3
20260905191006 61 55 0.0 2.0 0.00 0.00 0.00 77 1018.4
20260905190510 61 55 0.0 2.0 0.00 0.00 0.00 76 1018.4
20260905190014 61 55 1.0 2.0 0.00 0.00 0.00 77 1018.5
20260905185506 61 55 1.0 3.0 0.00 0.00 0.00 77 1018.5
20260905185007 61 55 0.0 3.0 0.00 0.00 0.00 76 1018.5
20260905184521 61 46 0.0 2.0 0.00 0.00 0.00 77 1018.6
20260905184003 61 53 0.0 2.0 0.00 0.00 0.00 77 1018.6
20260905183511 60 53 1.0 2.0 0.00 0.00 0.00 77 1018.6
20260905183016 60 33 0.0 2.0 0.00 0.00 0.00 77 1018.6
20260905182505 60 33 0.0 2.0 0.00 0.00 0.00 77 1018.6
20260905182005 60 30 0.0 2.0 0.00 0.00 0.00 78 1018.7
20260905181516 60 30 0.0 2.0 0.00 0.00 0.00 78 1018.7
20260905181008 60 30 0.0 2.0 0.00 0.00 0.00 78 1018.9
20260905180508 60 51 0.0 1.0 0.00 0.00 0.00 78 1018.8
20260905180014 60 31 0.0 0.0 0.00 0.00 0.00 79 1018.8
20260905175506 60 31 0.0 0.0 0.00 0.00 0.00 79 1018.8
20260905175010 59 31 0.0 0.0 0.00 0.00 0.00 78 1018.8
20260905174517 59 31 0.0 0.0 0.00 0.00 0.00 79 1018.8
20260905174010 59 85 0.0 0.0 0.00 0.00 0.00 79 1018.8
20260905173510 59 161 0.0 0.0 0.00 0.00 0.00 79 1018.8
20260905173017 59 161 0.0 0.0 0.00 0.00 0.00 79 1018.8
20260905172508 59 161 0.0 0.0 0.00 0.00 0.00 79 1018.8
20260905172008 59 103 0.0 0.0 0.00 0.00 0.00 79 1018.8
20260905171529 59 103 0.0 0.0 0.00 0.00 0.00 80 1018.8
20260905171010 59 103 0.0 0.0 0.00 0.00 0.00 80 1018.8
20260905170508 59 103 0.0 1.0 0.00 0.00 0.00 80 1018.8
20260905170018 59 103 0.0 1.0 0.00 0.00 0.00 80 1018.7
20260905165509 58 103 0.0 2.0 0.00 0.00 0.00 80 1018.7
20260905165009 58 103 0.0 2.0 0.00 0.00 0.00 81 1018.7
20260905164523 58 103 0.0 2.0 0.00 0.00 0.00 81 1018.6
20260905164013 58 317 0.0 0.0 0.00 0.00 0.00 82 1018.6
20260905163508 57 317 0.0 0.0 0.00 0.00 0.00 83 1018.5
20260905163020 57 317 0.0 0.0 0.00 0.00 0.00 84 1018.4
20260905162509 57 317 0.0 0.0 0.00 0.00 0.00 84 1018.4
20260905162010 56 317 0.0 0.0 0.00 0.00 0.00 84 1018.4
20260905161521 56 317 0.0 0.0 0.00 0.00 0.00 85 1018.3
20260905161015 56 317 0.0 0.0 0.00 0.00 0.00 85 1018.3
20260905160511 56 317 0.0 0.0 0.00 0.00 0.00 85 1018.4
20260905160026 56 317 0.0 1.0 0.00 0.00 0.00 85 1018.4
20260905155512 55 317 0.0 1.0 0.00 0.00 0.00 85 1018.5
20260905155009 55 317 0.0 0.0 0.00 0.00 0.00 86 1018.5
20260905154519 55 317 0.0 0.0 0.00 0.00 0.00 86 1018.5
20260905154010 55 317 0.0 1.0 0.00 0.00 0.00 86 1018.5
20260905153512 55 317 0.0 1.0 0.00 0.00 0.00 86 1018.6
20260905153022 55 317 0.0 0.0 0.00 0.00 0.00 87 1018.6
20260905152512 55 317 0.0 0.0 0.00 0.00 0.00 87 1018.6
20260905152010 55 317 0.0 0.0 0.00 0.00 0.00 88 1018.6
20260905151518 55 317 0.0 0.0 0.00 0.00 0.00 88 1018.6
20260905151012 54 317 0.0 0.0 0.00 0.00 0.00 88 1018.5
20260905150511 54 317 0.0 0.0 0.00 0.00 0.00 89 1018.5
20260905150018 54 317 0.0 0.0 0.00 0.00 0.00 89 1018.5
20260905145514 54 317 0.0 0.0 0.00 0.00 0.00 90 1018.5
20260905145012 54 317 0.0 0.0 0.00 0.00 0.00 89 1018.5
20260905144520 54 317 0.0 0.0 0.00 0.00 0.00 89 1018.4
20260905144009 54 317 0.0 0.0 0.00 0.00 0.00 89 1018.4
20260905143512 54 317 0.0 0.0 0.00 0.01 0.00 89 1018.3
20260905143022 53 317 0.0 0.0 0.00 0.01 0.00 89 1018.3
20260905142513 53 317 0.0 0.0 0.00 0.01 0.00 89 1018.2
20260905142013 53 317 0.0 0.0 0.00 0.02 0.00 89 1018.1
20260905141517 53 317 0.0 0.0 0.00 0.03 0.00 89 1018.1
20260905141016 53 317 0.0 0.0 0.00 0.04 0.00 89 1018.1
20260905140519 53 317 0.0 0.0 0.00 0.04 0.00 89 1018.1
20260905140018 53 317 0.0 0.0 0.00 0.05 0.00 89 1018.1
20260905135511 53 317 0.0 0.0 0.00 0.05 0.00 89 1018.1
20260905135012 53 317 0.0 0.0 0.00 0.06 0.00 89 1018.1
20260905134540 53 317 0.0 0.0 0.00 0.06 0.00 89 1018.1
20260905134013 53 317 0.0 0.0 0.00 0.06 0.00 89 1018.1
20260905133511 53 317 0.0 0.0 0.00 0.06 0.00 89 1018.1
20260905133029 53 317 0.0 0.0 0.00 0.06 0.00 89 1018.1
20260905132512 53 317 0.0 0.0 0.00 0.06 0.00 89 1018.0
20260905132013 53 317 0.0 0.0 0.00 0.06 0.00 89 1018.1
20260905131531 53 317 0.0 0.0 0.00 0.06 0.00 89 1018.1
20260905131014 53 317 0.0 0.0 0.00 0.06 0.00 89 1018.1
20260905130514 53 317 0.0 0.0 0.00 0.06 0.00 89 1018.1
20260905130029 53 317 0.0 0.0 0.00 0.06 0.00 89 1018.1
20260905125515 53 317 0.0 0.0 0.00 0.06 0.00 89 1018.1
20260905125017 53 317 0.0 0.0 0.00 0.06 0.00 89 1018.0
20260905124528 53 317 0.0 0.0 0.00 0.06 0.00 89 1017.9
20260905124013 53 317 0.0 0.0 0.00 0.06 0.00 89 1017.9
20260905123514 53 317 0.0 0.0 0.00 0.06 0.00 89 1017.8
20260905123032 53 317 0.0 0.0 0.00 0.07 0.00 89 1017.7
20260905122517 53 317 0.0 0.0 0.00 0.07 0.00 89 1017.7
20260905122012 53 317 0.0 0.0 0.00 0.07 0.00 89 1017.7
20260905121518 53 317 0.0 0.0 0.00 0.07 0.00 89 1017.7
20260905121006 53 317 0.0 0.0 0.00 0.07 0.00 89 1017.7
20260905120512 53 317 0.0 0.0 0.00 0.07 0.00 89 1017.7
20260905120025 53 317 0.0 0.0 0.00 0.07 0.00 89 1017.6
20260905115504 53 317 0.0 0.0 0.00 0.07 0.00 89 1017.6
20260905115013 53 317 0.0 0.0 0.00 0.07 0.00 89 1017.6
20260905114520 53 317 0.0 0.0 0.00 0.07 0.00 89 1017.6
20260905114003 53 317 0.0 0.0 0.00 0.07 0.00 89 1017.6
20260905113513 53 317 0.0 0.0 0.00 0.07 0.00 89 1017.5
20260905113020 53 317 0.0 0.0 0.00 0.07 0.00 89 1017.5
20260905112506 53 317 0.0 0.0 0.00 0.07 0.00 90 1017.5
20260905112013 53 317 0.0 0.0 0.00 0.07 0.00 90 1017.5
20260905111520 53 317 0.0 0.0 0.00 0.07 0.00 90 1017.5
20260905111010 53 317 0.0 0.0 0.00 0.07 0.00 90 1017.5
20260905110514 53 317 0.0 0.0 0.00 0.07 0.00 89 1017.5
20260905110020 53 317 0.0 0.0 0.00 0.07 0.00 89 1017.6
20260905105505 53 317 0.0 0.0 0.00 0.07 0.00 89 1017.5
20260905105015 53 317 0.0 0.0 0.00 0.07 0.00 89 1017.4
20260905104520 53 317 0.0 0.0 0.00 0.07 0.00 89 1017.5
20260905104004 53 317 0.0 0.0 0.00 0.07 0.00 90 1017.4
20260905103512 53 317 0.0 0.0 0.00 0.07 0.00 89 1017.5
20260905103029 53 317 0.0 0.0 0.00 0.07 0.00 90 1017.6
20260905102504 53 317 0.0 0.0 0.00 0.07 0.00 90 1017.6
20260905102014 53 317 0.0 0.0 0.00 0.07 0.00 90 1017.6
20260905101518 53 317 0.0 0.0 0.00 0.07 0.00 89 1017.5
20260905101004 53 317 0.0 0.0 0.00 0.07 0.00 90 1017.4
20260905100515 53 317 0.0 0.0 0.00 0.07 0.00 90 1017.4
20260905100018 53 317 0.0 0.0 0.00 0.07 0.00 89 1017.4
20260905095508 53 317 0.0 0.0 0.00 0.07 0.00 89 1017.4
20260905095013 53 317 0.0 0.0 0.00 0.07 0.00 89 1017.4
20260905094522 54 317 0.0 0.0 0.00 0.07 0.00 89 1017.4
20260905094003 54 317 0.0 0.0 0.00 0.07 0.00 89 1017.4
20260905093516 54 317 0.0 0.0 0.00 0.07 0.00 89 1017.5
20260905093020 54 317 0.0 0.0 0.00 0.07 0.00 89 1017.4
20260905092505 54 317 0.0 0.0 0.00 0.07 0.00 89 1017.4
20260905092016 54 317 0.0 0.0 0.00 0.07 0.00 88 1017.5
20260905091531 54 317 0.0 0.0 0.00 0.07 0.00 88 1017.4
20260905091017 54 317 0.0 1.0 0.00 0.07 0.00 88 1017.4
20260905090515 54 317 0.0 1.0 0.00 0.07 0.00 88 1017.4
20260905090037 54 317 0.0 0.0 0.00 0.07 0.00 87 1017.3
20260905085521 54 317 0.0 0.0 0.00 0.07 0.00 87 1017.3
20260905085015 55 317 0.0 0.0 0.00 0.07 0.00 87 1017.2
20260905084533 55 317 0.0 0.0 0.00 0.07 0.00 87 1017.2
20260905084018 55 317 0.0 0.0 0.00 0.07 0.00 86 1017.2
20260905083516 55 317 0.0 1.0 0.00 0.07 0.00 86 1017.1
20260905083033 55 317 0.0 1.0 0.00 0.07 0.00 86 1017.1
20260905082516 55 317 0.0 1.0 0.00 0.07 0.00 86 1017.1
20260905082013 55 317 0.0 1.0 0.00 0.07 0.00 86 1017.1
20260905081530 55 317 0.0 1.0 0.00 0.07 0.00 86 1017.1
20260905081015 55 317 0.0 1.0 0.00 0.07 0.00 86 1017.1
20260905080513 56 317 0.0 0.0 0.00 0.07 0.00 86 1017.1
20260905080040 56 317 0.0 0.0 0.00 0.07 0.00 86 1017.0
20260905075518 56 317 0.0 0.0 0.00 0.07 0.00 86 1017.1
20260905075011 56 317 0.0 0.0 0.00 0.07 0.00 86 1017.1
20260905074532 56 317 0.0 0.0 0.00 0.07 0.00 85 1017.0
20260905074015 56 317 0.0 0.0 0.00 0.07 0.00 85 1017.0
20260905073517 56 317 0.0 0.0 0.00 0.07 0.00 85 1017.0
20260905073034 56 317 0.0 0.0 0.00 0.07 0.00 85 1016.9
20260905072516 56 317 0.0 0.0 0.00 0.07 0.00 85 1017.0
20260905072015 56 317 0.0 0.0 0.00 0.07 0.00 84 1017.0
20260905071531 56 317 0.0 0.0 0.00 0.07 0.00 84 1017.0
20260905071021 56 317 0.0 0.0 0.00 0.07 0.00 84 1017.0
20260905070514 56 317 0.0 0.0 0.00 0.07 0.00 84 1017.0
20260905070036 56 317 0.0 0.0 0.00 0.07 0.00 83 1017.0
20260905065517 56 317 0.0 0.0 0.00 0.07 0.07 83 1016.9
20260905065012 56 317 0.0 0.0 0.00 0.07 0.07 84 1016.9
20260905064533 56 317 0.0 0.0 0.00 0.07 0.07 83 1016.8
20260905064019 56 317 0.0 0.0 0.00 0.07 0.07 83 1016.8
20260905063514 56 317 0.0 0.0 0.00 0.07 0.07 83 1016.7
20260905063032 56 317 0.0 0.0 0.00 0.07 0.07 83 1016.7
20260905062517 56 317 0.0 0.0 0.00 0.07 0.07 83 1016.7
20260905062015 56 317 0.0 0.0 0.00 0.07 0.07 83 1016.7
20260905061520 56 317 0.0 0.0 0.00 0.07 0.07 83 1016.7
20260905061003 56 317 0.0 0.0 0.00 0.07 0.07 82 1016.7
20260905060503 56 317 0.0 0.0 0.00 0.07 0.07 83 1016.7
20260905060024 56 317 0.0 0.0 0.00 0.07 0.07 82 1016.7
20260905055504 57 317 0.0 0.0 0.00 0.07 0.07 82 1016.7
20260905055003 57 317 0.0 0.0 0.00 0.07 0.07 82 1016.7
20260905054521 57 317 0.0 0.0 0.00 0.07 0.07 82 1016.7
20260905054003 57 317 0.0 0.0 0.00 0.07 0.07 82 1016.6
20260905053503 57 317 0.0 0.0 0.00 0.07 0.07 81 1016.6
20260905053017 57 317 0.0 0.0 0.00 0.07 0.07 81 1016.6
20260905052505 57 317 0.0 0.0 0.00 0.07 0.07 81 1016.7
20260905052006 57 317 0.0 0.0 0.00 0.07 0.07 81 1016.6
20260905051519 58 317 0.0 0.0 0.00 0.07 0.07 81 1016.6
20260905051005 58 317 0.0 0.0 0.00 0.07 0.07 80 1016.6
20260905050504 58 317 0.0 0.0 0.00 0.07 0.07 80 1016.6
20260905050020 58 317 0.0 0.0 0.00 0.07 0.07 80 1016.6
20260905045503 58 317 0.0 0.0 0.00 0.07 0.07 80 1016.6
20260905045003 58 317 0.0 0.0 0.00 0.07 0.07 79 1016.6
20260905044525 58 317 0.0 0.0 0.00 0.07 0.07 78 1016.6
20260905044004 58 317 0.0 0.0 0.00 0.07 0.07 78 1016.7
20260905043502 58 317 0.0 0.0 0.00 0.07 0.07 78 1016.7
20260905043019 58 317 0.0 0.0 0.00 0.07 0.07 78 1016.7
20260905042503 58 317 0.0 0.0 0.00 0.07 0.07 78 1016.6
20260905042017 58 317 0.0 0.0 0.00 0.07 0.07 77 1016.7
20260905041522 58 317 0.0 0.0 0.00 0.07 0.07 77 1016.6
20260905041003 58 317 0.0 0.0 0.00 0.07 0.07 77 1016.6
20260905040514 58 317 0.0 0.0 0.00 0.07 0.07 77 1016.6
20260905040026 58 317 0.0 0.0 0.00 0.07 0.07 77 1016.5
20260905035506 59 317 0.0 0.0 0.00 0.07 0.07 77 1016.5
20260905035017 59 317 0.0 0.0 0.00 0.07 0.07 76 1016.5
20260905034527 59 317 0.0 0.0 0.00 0.07 0.07 76 1016.4
20260905034003 59 317 0.0 0.0 0.00 0.07 0.07 75 1016.4
20260905033515 59 317 0.0 0.0 0.00 0.07 0.07 76 1016.4
20260905033022 59 317 0.0 0.0 0.00 0.07 0.07 74 1016.4
20260905032503 59 317 0.0 0.0 0.00 0.07 0.07 74 1016.4
20260905032019 60 317 0.0 0.0 0.00 0.07 0.07 74 1016.4
20260905031528 60 317 0.0 0.0 0.00 0.07 0.07 74 1016.3
20260905031006 60 317 0.0 0.0 0.00 0.07 0.07 74 1016.3
20260905030514 60 317 0.0 0.0 0.00 0.07 0.07 74 1016.3